TimeEST,TemperatureF,Dew PointF,Humidity,Sea Level PressureIn,VisibilityMPH,Wind Direction,Wind SpeedMPH,Gust SpeedMPH,PrecipitationIn,Events,Conditions,WindDirDegrees,DateUTC
12:53 AM,21.0,17.1,85,30.42,4.0,SW,4.6,-,0.00,Snow,Light Snow,230,2013-11-29 05:53:00
1:50 AM,21.2,17.6,86,30.35,2.5,SW,4.6,-,0.00,Snow,Light Snow,230,2013-11-29 06:50:00
1:53 AM,21.0,18.0,88,30.43,2.5,SW,4.6,-,0.00,Snow,Light Snow,230,2013-11-29 06:53:00
2:19 AM,21.2,17.6,86,30.36,3.0,SW,3.5,-,0.01,Snow,Light Snow,230,2013-11-29 07:19:00
2:29 AM,21.2,19.4,93,30.36,2.5,SW,4.6,-,0.01,Snow,Light Snow,230,2013-11-29 07:29:00
2:51 AM,21.2,19.4,93,30.36,3.0,SW,5.8,-,0.01,Snow,Light Snow,230,2013-11-29 07:51:00
2:53 AM,21.0,19.0,92,30.43,4.0,SW,5.8,-,0.01,Snow,Light Snow,230,2013-11-29 07:53:00
3:53 AM,19.9,19.0,96,30.44,5.0,SW,4.6,-,0.00,,Overcast,230,2013-11-29 08:53:00
4:39 AM,19.4,17.6,93,30.37,5.0,WSW,4.6,-,0.00,Snow,Light Snow,240,2013-11-29 09:39:00
4:53 AM,19.0,18.0,96,30.46,4.0,WSW,4.6,-,0.00,Snow,Light Snow,240,2013-11-29 09:53:00
5:46 AM,19.4,17.6,93,30.39,9.0,SW,4.6,-,0.00,,Scattered Clouds,230,2013-11-29 10:46:00
5:53 AM,19.0,18.0,96,30.48,10.0,WSW,4.6,-,0.00,,Scattered Clouds,240,2013-11-29 10:53:00
6:06 AM,19.4,17.6,93,30.40,4.0,Calm,Calm,-,N/A,,Mostly Cloudy,0,2013-11-29 11:06:00
6:53 AM,21.0,19.0,92,30.50,8.0,Calm,Calm,-,N/A,,Overcast,0,2013-11-29 11:53:00
7:00 AM,21.2,19.4,93,30.43,8.0,Calm,Calm,-,N/A,,Overcast,0,2013-11-29 12:00:00
7:14 AM,19.4,19.4,100,30.43,7.0,SW,3.5,-,N/A,,Overcast,230,2013-11-29 12:14:00
7:26 AM,21.2,19.4,93,30.44,6.0,SW,3.5,-,N/A,,Overcast,230,2013-11-29 12:26:00
7:51 AM,21.2,19.4,93,30.45,4.0,SW,4.6,-,0.00,Snow,Light Snow,230,2013-11-29 12:51:00
7:53 AM,21.0,19.0,92,30.53,4.0,SW,3.5,-,0.00,,Overcast,230,2013-11-29 12:53:00
8:28 AM,21.2,19.4,93,30.47,6.0,West,5.8,-,N/A,,Overcast,260,2013-11-29 13:28:00
8:53 AM,21.0,19.0,92,30.56,8.0,WSW,4.6,-,N/A,,Overcast,250,2013-11-29 13:53:00
9:06 AM,21.2,19.4,93,30.49,2.5,West,5.8,-,0.00,Snow,Light Snow,270,2013-11-29 14:06:00
9:14 AM,21.2,19.4,93,30.49,1.0,West,4.6,-,0.00,Snow,Light Snow,270,2013-11-29 14:14:00
9:18 AM,21.2,19.4,93,30.49,1.2,West,4.6,-,0.00,Snow,Light Snow,270,2013-11-29 14:18:00
9:29 AM,21.2,19.4,93,30.49,9.0,West,4.6,-,0.00,,Mostly Cloudy,270,2013-11-29 14:29:00
9:37 AM,21.2,19.4,93,30.49,10.0,West,5.8,-,0.00,,Scattered Clouds,260,2013-11-29 14:37:00
9:53 AM,23.0,18.0,81,30.58,9.0,NW,4.6,-,0.00,,Mostly Cloudy,320,2013-11-29 14:53:00
10:18 AM,23.0,17.6,80,30.51,2.5,NNW,6.9,-,0.00,Snow,Light Snow,330,2013-11-29 15:18:00
10:26 AM,23.0,19.4,86,30.51,1.2,NNW,5.8,-,0.00,Snow,Light Snow,340,2013-11-29 15:26:00
10:44 AM,21.2,17.6,86,30.52,4.0,NW,9.2,-,0.00,Snow,Light Snow,320,2013-11-29 15:44:00
10:53 AM,25.0,18.0,75,30.60,10.0,NNW,8.1,-,0.00,,Mostly Cloudy,330,2013-11-29 15:53:00
11:53 AM,24.1,14.0,65,30.60,10.0,North,9.2,-,N/A,,Mostly Cloudy,360,2013-11-29 16:53:00
12:04 PM,24.8,15.8,69,30.52,10.0,NNW,8.1,-,N/A,,Scattered Clouds,330,2013-11-29 17:04:00
12:15 PM,24.8,15.8,69,30.53,10.0,NW,9.2,-,N/A,,Mostly Cloudy,310,2013-11-29 17:15:00
12:46 PM,24.8,15.8,69,30.53,9.0,NNW,9.2,-,0.00,,Overcast,330,2013-11-29 17:46:00
12:53 PM,24.1,14.0,65,30.61,10.0,NNW,8.1,-,0.00,,Overcast,330,2013-11-29 17:53:00
1:09 PM,24.8,14.0,64,30.53,10.0,NNW,9.2,-,N/A,,Overcast,340,2013-11-29 18:09:00
1:44 PM,24.8,14.0,64,30.53,10.0,North,9.2,-,N/A,,Overcast,360,2013-11-29 18:44:00
1:53 PM,25.0,14.0,63,30.61,10.0,NNW,5.8,-,N/A,,Overcast,340,2013-11-29 18:53:00
2:53 PM,26.1,10.0,51,30.62,10.0,NW,9.2,-,N/A,,Scattered Clouds,310,2013-11-29 19:53:00
3:53 PM,24.1,9.0,53,30.65,10.0,NW,8.1,-,N/A,,Clear,320,2013-11-29 20:53:00
4:53 PM,21.9,9.0,58,30.67,10.0,NNW,5.8,-,N/A,,Clear,330,2013-11-29 21:53:00
5:53 PM,21.0,10.0,63,30.70,10.0,NNW,4.6,-,N/A,,Clear,340,2013-11-29 22:53:00
6:53 PM,19.9,10.0,65,30.71,10.0,Calm,Calm,-,N/A,,Clear,0,2013-11-29 23:53:00
7:53 PM,19.0,10.9,71,30.72,10.0,Calm,Calm,-,N/A,,Clear,0,2013-11-30 00:53:00
8:53 PM,18.0,10.0,71,30.73,10.0,NW,3.5,-,N/A,,Clear,320,2013-11-30 01:53:00
9:53 PM,17.1,10.0,74,30.73,10.0,NNW,5.8,-,N/A,,Clear,340,2013-11-30 02:53:00
10:53 PM,16.0,10.0,77,30.73,10.0,North,3.5,-,N/A,,Clear,350,2013-11-30 03:53:00
11:53 PM,16.0,10.0,77,30.73,10.0,Calm,Calm,-,N/A,,Clear,0,2013-11-30 04:53:00